Regional Weather Roundup
Issued by NWS Sioux Falls, SD

Home | Current Version | Previous Version | Text Only | Print | Product List | Glossary On
Versions: 1 2 3 4 5 6 7 8 9 10 11 12 13 14 15 16 17 18 19 20 21 22 23 24 25 26 27 28 29 30 31 32 33 34 35 36 37 38 39 40 41 42 43 44 45 46 47 48 49 50
000
ASUS43 KFSD 270610
RWRFSD

WEATHER ROUNDUP FOR SE SOUTH DAKOTA/SW MINNESOTA/NW IOWA
NATIONAL WEATHER SERVICE SIOUX FALLS SD
100 AM CDT SAT MAY 27 2017

NOTE: "FAIR" INDICATES FEW OR NO CLOUDS BELOW 12,000 FEET WITH NO
SIGNIFICANT WEATHER AND OR OBSTRUCTIONS TO VISIBILITY.


SDZ038>040-050-052>070-270700-
SOUTHEAST SOUTH DAKOTA

CITY           SKY/WX    TMP DP  RH WIND       PRES   REMARKS
BROOKINGS      PTCLDY    51  44  77 CALM      29.90R
CHAMBERLAIN    CLOUDY    60  47  62 CALM      29.92R
6HR MIN TEMP:  58; 6HR MAX TEMP:  72;

HURON          CLOUDY    55  48  77 CALM      29.89R
6HR MIN TEMP:  53; 6HR MAX TEMP:  71;

MADISON        FAIR      52  45  76 NW5       29.91R
MITCHELL       CLOUDY    55  48  77 S5        29.90S
6HR MIN TEMP:  52; 6HR MAX TEMP:  75;

SIOUX FALLS    CLEAR     52  44  74 CALM      29.90R
6HR MIN TEMP:  47; 6HR MAX TEMP:  72;

WINNER         MOCLDY    58  47  66 SW5       29.93R
YANKTON        MOCLDY    56  47  71 NW3       29.91S
$$

MNZ071-072-080-081-089-090-097-098-270700-
SOUTHWEST MINNESOTA

CITY           SKY/WX    TMP DP  RH WIND       PRES   REMARKS
FAIRMONT       CLEAR     59  45  59 CALM      29.88S
JACKSON        CLEAR     55  43  62 CALM      29.89R
LUVERNE        CLEAR     52  41  66 CALM      29.90S
MARSHALL       CLEAR     56  47  71 W6        29.89R
6HR MIN TEMP:  54; 6HR MAX TEMP:  72;

MONTEVIDEO     CLEAR     55  46  71 CALM      29.87S
PIPESTONE      CLEAR     55  41  58 CALM      29.90S
REDWOOD FALLS  CLEAR     59  44  57 NW5       29.87R
TRACY          CLEAR     58  47  69 CALM      29.89S
WINDOM         CLEAR     55  45  67 W6        29.90R
WORTHINGTON    CLEAR     52  43  71 W3        29.91R
$$

IAZ001>003-012>014-020>022-031-032-NEZ013-014-SDZ071-270700-
NORTHWEST IOWA

CITY           SKY/WX    TMP DP  RH WIND       PRES   REMARKS
CHEROKEE       CLEAR     55  45  69 NE3       29.89R
DENISON        CLEAR     57  46  67 N5        29.90R
ESTHERVILLE    CLEAR     55  48  77 W5        29.87F
LE MARS        CLOUDY    52  46  82 CALM      29.90S
ORANGE CITY    CLEAR     57  46  67 NW5       29.90S
SHELDON        CLEAR     52  43  71 CALM      29.89R
SIOUX CITY     CLOUDY    57  46  66 N5        29.89R
6HR MIN TEMP:  56; 6HR MAX TEMP:  75;

SPENCER        CLEAR     54  46  74 NW7       29.89R
6HR MIN TEMP:  52; 6HR MAX TEMP:  75;

STORM LAKE     CLEAR     61  43  51 N6        29.89S
$$

ABBREVIATIONS USED IN REMARKS
   TC - TEMPERATURE IN CELSIUS
  WCI - WIND CHILL INDEX
   HX - HEAT INDEX
  VSB - VISIBILITY





USA.gov is the U.S. government's official web portal to all federal, state and local government web resources and services.